Tracking 18823 objects as of 20-October-2017
HD Live streaming from Space Station
objects crossing your sky now

DELTA 1 R/B

Track DELTA 1 R/B now!
10-day predictions


NORAD ID: 2661
Int'l Code: 1967-006B
Perigee: 1,347.2 km
Apogee: 1,447.8 km
Inclination: 101.9 °
Period: 113.6 minutes
Semi major axis: 7768 km
RCS: 0.6811 m2 (medium)
Launch date: January 26, 1967
Source: United States (US)
Launch site: AIR FORCE WESTERN TEST RANGE (AFWTR)

Note: This is a ROCKET BODY
aabbcc
Your satellite tracking list
Your tracking list is empty





NASA's NSSDC Master Catalog

Two Line Element Set (TLE):
1  2661U 67006B   17292.38317639 -.00000039 +00000-0 +46059-4 0  9996
2  2661 101.9032 205.0817 0064755 132.0778 337.3462 12.67928484347295
Source of the keplerian elements: AFSPC